LKE9976 ZSPD-ZGGG

Flight info

Callsign LKE9976
Flight time 1h 59m
Altitude 34100
Route NXD82D NXD W131 AKDIM A470 DUBGO W134 ELNEX A599 KIGUN/K0882S1100 A599 PLT W19 OLPAB OLPAB8
Aircraft B738/M-SDE2E3FGHIRWXY/LB1

Departure

Time 2026-05-04 14:52
Airport Shanghai Pudong International Airport (ZSPD)

Arrival

Time 2026-05-04 16:51
Airport Guangzhou Baiyun International Airport (ZGGG)
Time Latitude Longitude Altitude Speed Heading
2026-05-04 14:27 31.14264 121.81090 21 ft 0 kts 191°
2026-05-04 14:36 31.14272 121.81091 21 ft 2 kts 188°
2026-05-04 14:36 31.14283 121.81093 21 ft 2 kts 189°
2026-05-04 14:36 31.14298 121.81096 21 ft 2 kts 189°
2026-05-04 14:37 31.14312 121.81099 21 ft 2 kts 189°
2026-05-04 14:37 31.14327 121.81101 21 ft 2 kts 189°
2026-05-04 14:37 31.14338 121.81104 21 ft 1 kts 211°
2026-05-04 14:37 31.14343 121.81110 21 ft 0 kts 261°
2026-05-04 14:38 31.14344 121.81117 21 ft 0 kts 252°
2026-05-04 14:42 31.14331 121.81072 21 ft 6 kts 251°
2026-05-04 14:42 31.14319 121.81029 21 ft 4 kts 251°
2026-05-04 14:42 31.14310 121.81002 21 ft 0 kts 248°
2026-05-04 14:43 31.14291 121.80930 21 ft 17 kts 250°
2026-05-04 14:43 31.14312 121.80817 21 ft 13 kts 271°
2026-05-04 14:43 31.14307 121.80721 21 ft 10 kts 261°
2026-05-04 14:43 31.14288 121.80607 21 ft 21 kts 255°
2026-05-04 14:44 31.14236 121.80415 22 ft 25 kts 251°
2026-05-04 14:44 31.14183 121.80234 23 ft 21 kts 251°
2026-05-04 14:44 31.14144 121.80093 24 ft 10 kts 251°
2026-05-04 14:44 31.14122 121.80018 24 ft 9 kts 253°
2026-05-04 14:45 31.14095 121.79917 23 ft 13 kts 251°
2026-05-04 14:45 31.14067 121.79823 23 ft 11 kts 251°
2026-05-04 14:45 31.14035 121.79710 22 ft 18 kts 260°
2026-05-04 14:45 31.14102 121.79582 23 ft 22 kts 342°
2026-05-04 14:46 31.14251 121.79525 24 ft 21 kts 343°
2026-05-04 14:46 31.14383 121.79476 24 ft 18 kts 342°
2026-05-04 14:46 31.14493 121.79432 25 ft 15 kts 341°
2026-05-04 14:46 31.14586 121.79395 24 ft 12 kts 344°
2026-05-04 14:47 31.14683 121.79366 25 ft 15 kts 347°
2026-05-04 14:47 31.14777 121.79334 25 ft 12 kts 340°
2026-05-04 14:47 31.14853 121.79301 24 ft 11 kts 338°
2026-05-04 14:47 31.14937 121.79264 22 ft 13 kts 342°
2026-05-04 14:48 31.15023 121.79233 21 ft 12 kts 342°
2026-05-04 14:48 31.15099 121.79206 21 ft 10 kts 343°
2026-05-04 14:48 31.15168 121.79181 21 ft 10 kts 342°
2026-05-04 14:48 31.15241 121.79153 20 ft 10 kts 341°
2026-05-04 14:49 31.15311 121.79126 19 ft 10 kts 342°
2026-05-04 14:49 31.15383 121.79099 18 ft 11 kts 343°
2026-05-04 14:49 31.15510 121.79052 18 ft 26 kts 342°
2026-05-04 14:49 31.15630 121.79006 21 ft 5 kts 342°
2026-05-04 14:50 31.15660 121.78995 21 ft 19 kts 341°
2026-05-04 14:50 31.15828 121.78931 21 ft 25 kts 342°
2026-05-04 14:50 31.15958 121.78828 21 ft 23 kts 264°
2026-05-04 14:50 31.15876 121.78692 21 ft 22 kts 163°
2026-05-04 14:51 31.15729 121.78749 21 ft 22 kts 161°
2026-05-04 14:51 31.15573 121.78809 21 ft 37 kts 163°
2026-05-04 14:51 31.14955 121.79043 25 ft 140 kts 160°
2026-05-04 14:51 31.13810 121.79456 348 ft 192 kts 162°
2026-05-04 14:52 31.12512 121.79926 1538 ft 203 kts 162°
2026-05-04 14:52 31.11173 121.80431 2586 ft 214 kts 163°
2026-05-04 14:52 31.09666 121.80965 2992 ft 230 kts 164°
2026-05-04 14:52 31.08093 121.81491 3012 ft 236 kts 165°
2026-05-04 14:53 31.06463 121.82021 3013 ft 253 kts 165°
2026-05-04 14:53 31.04755 121.82575 3007 ft 256 kts 165°
2026-05-04 14:53 31.02939 121.82918 3334 ft 277 kts 181°
2026-05-04 14:53 31.01045 121.82576 4693 ft 277 kts 198°
2026-05-04 14:54 30.99369 121.81562 5802 ft 280 kts 221°
2026-05-04 14:54 30.98161 121.79793 5964 ft 274 kts 247°
2026-05-04 14:54 30.97548 121.77734 5935 ft 273 kts 257°
2026-05-04 14:54 30.97040 121.75530 6724 ft 290 kts 257°
2026-05-04 14:55 30.96525 121.73326 8161 ft 284 kts 260°
2026-05-04 14:55 30.96277 121.71111 9443 ft 279 kts 273°
2026-05-04 14:55 30.96516 121.68881 10527 ft 282 kts 284°
2026-05-04 14:55 30.96975 121.66699 11661 ft 283 kts 286°
2026-05-04 14:56 30.97455 121.64514 12728 ft 285 kts 285°
2026-05-04 14:56 30.97918 121.62254 13730 ft 290 kts 283°
2026-05-04 14:56 30.98352 121.59993 14751 ft 291 kts 282°
2026-05-04 14:56 30.98776 121.57699 15742 ft 294 kts 282°
2026-05-04 14:57 30.99201 121.55377 16756 ft 296 kts 282°
2026-05-04 14:57 30.99630 121.53030 17728 ft 298 kts 281°
2026-05-04 14:57 31.00058 121.50690 18665 ft 300 kts 281°
2026-05-04 14:57 31.00490 121.48334 19586 ft 301 kts 281°
2026-05-04 14:58 31.00928 121.45946 20454 ft 302 kts 281°
2026-05-04 14:58 31.01368 121.43559 21233 ft 306 kts 281°
2026-05-04 14:58 31.01817 121.41115 21718 ft 319 kts 281°
2026-05-04 14:58 31.02287 121.38549 22187 ft 331 kts 281°
2026-05-04 14:59 31.02775 121.35880 22578 ft 345 kts 281°
2026-05-04 14:59 31.03288 121.33078 23007 ft 357 kts 280°
2026-05-04 14:59 31.04330 121.27402 24572 ft 362 kts 280°
2026-05-04 15:00 31.04854 121.24539 25315 ft 364 kts 280°
2026-05-04 15:00 31.05383 121.21650 26187 ft 362 kts 279°
2026-05-04 15:00 31.05897 121.18840 27259 ft 354 kts 279°
2026-05-04 15:01 31.06606 121.13332 29111 ft 340 kts 269°
2026-05-04 15:01 31.06431 121.10630 29988 ft 333 kts 261°
2026-05-04 15:01 31.05953 121.08047 30604 ft 332 kts 257°
2026-05-04 15:01 31.05328 121.05397 30843 ft 342 kts 256°
2026-05-04 15:02 31.04643 121.02695 30993 ft 353 kts 255°
2026-05-04 15:02 31.03930 120.99901 31147 ft 364 kts 255°
2026-05-04 15:02 31.03201 120.97025 31311 ft 375 kts 255°
2026-05-04 15:02 31.02454 120.94059 31372 ft 388 kts 255°
2026-05-04 15:03 31.01682 120.90974 31615 ft 396 kts 255°
2026-05-04 15:03 31.00913 120.87899 32105 ft 397 kts 255°
2026-05-04 15:03 31.00144 120.84824 32832 ft 392 kts 255°
2026-05-04 15:03 30.99402 120.81862 33595 ft 384 kts 255°
2026-05-04 15:04 30.98652 120.78860 34012 ft 386 kts 255°
2026-05-04 15:04 30.97901 120.75851 34169 ft 388 kts 255°
2026-05-04 15:04 30.96403 120.69859 34203 ft 384 kts 256°
2026-05-04 15:05 30.94912 120.63904 34204 ft 384 kts 255°
2026-05-04 15:05 30.93412 120.57922 34201 ft 383 kts 256°
2026-05-04 15:06 30.91918 120.51981 34201 ft 385 kts 255°
2026-05-04 15:07 30.88622 120.43507 34198 ft 392 kts 238°
2026-05-04 15:07 30.84717 120.38960 34182 ft 404 kts 227°
2026-05-04 15:08 30.80164 120.35034 34178 ft 407 kts 223°
2026-05-04 15:08 30.75500 120.31265 34176 ft 409 kts 222°
2026-05-04 15:09 30.70873 120.27524 34181 ft 406 kts 223°
2026-05-04 15:09 30.66212 120.23729 34178 ft 406 kts 223°
2026-05-04 15:10 30.59305 120.18084 34181 ft 407 kts 223°
2026-05-04 15:11 30.52378 120.12418 34181 ft 406 kts 223°
2026-05-04 15:11 30.47774 120.08657 34179 ft 407 kts 223°
2026-05-04 15:12 30.43156 120.04910 34181 ft 405 kts 222°
2026-05-04 15:12 30.38291 120.01492 34180 ft 410 kts 219°
2026-05-04 15:13 30.33322 119.98267 34184 ft 411 kts 218°
2026-05-04 15:13 30.28348 119.95029 34186 ft 409 kts 218°
2026-05-04 15:14 30.23414 119.91784 34185 ft 410 kts 219°
2026-05-04 15:14 30.18454 119.88506 34192 ft 407 kts 219°
2026-05-04 15:15 30.13500 119.85220 34191 ft 408 kts 219°
2026-05-04 15:15 30.08556 119.81945 34191 ft 408 kts 219°
2026-05-04 15:16 30.01164 119.77030 34194 ft 406 kts 220°
2026-05-04 15:17 29.93829 119.72089 34198 ft 403 kts 220°
2026-05-04 15:17 29.86552 119.67194 34209 ft 404 kts 220°
2026-05-04 15:18 29.81775 119.63773 34214 ft 400 kts 223°
2026-05-04 15:19 29.74955 119.58346 34219 ft 399 kts 224°
2026-05-04 15:19 29.68083 119.52897 34217 ft 398 kts 223°
2026-05-04 15:20 29.63640 119.49151 34209 ft 390 kts 228°
2026-05-04 15:20 29.59754 119.44765 34215 ft 391 kts 234°
2026-05-04 15:21 29.56100 119.40132 34216 ft 392 kts 235°
2026-05-04 15:22 29.50635 119.33114 34219 ft 394 kts 234°
2026-05-04 15:22 29.45183 119.26153 34210 ft 391 kts 234°
2026-05-04 15:23 29.41540 119.21522 34210 ft 391 kts 234°
2026-05-04 15:23 29.37892 119.16889 34203 ft 389 kts 234°
2026-05-04 15:24 29.30566 119.07621 34202 ft 391 kts 234°
2026-05-04 15:25 29.26911 119.03012 34204 ft 390 kts 234°
2026-05-04 15:26 29.21443 118.96130 34203 ft 388 kts 234°
2026-05-04 15:26 29.15960 118.89242 34212 ft 390 kts 234°
2026-05-04 15:27 29.10511 118.82408 34203 ft 389 kts 234°
2026-05-04 15:28 29.05048 118.75539 34203 ft 388 kts 234°
2026-05-04 15:29 28.99557 118.68688 34196 ft 388 kts 234°
2026-05-04 15:30 28.86771 118.52765 34202 ft 389 kts 234°
2026-05-04 15:31 28.81311 118.45982 34206 ft 388 kts 234°
2026-05-04 15:32 28.72127 118.34594 34205 ft 389 kts 233°
2026-05-04 15:34 28.62936 118.23222 34208 ft 391 kts 233°
2026-05-04 15:34 28.57396 118.16391 34213 ft 390 kts 233°
2026-05-04 15:35 28.51863 118.09575 34211 ft 391 kts 233°
2026-05-04 15:36 28.46306 118.02741 34213 ft 390 kts 233°
2026-05-04 15:36 28.42632 117.98231 34206 ft 390 kts 233°
2026-05-04 15:37 28.38882 117.93692 34205 ft 392 kts 232°
2026-05-04 15:37 28.35071 117.89201 34207 ft 392 kts 232°
2026-05-04 15:38 28.31261 117.84728 34204 ft 393 kts 232°
2026-05-04 15:38 28.27449 117.80246 34202 ft 394 kts 232°
2026-05-04 15:39 28.23637 117.75762 34199 ft 393 kts 232°
2026-05-04 15:40 28.17896 117.69010 34203 ft 395 kts 232°
2026-05-04 15:40 28.14067 117.64511 34202 ft 395 kts 232°
2026-05-04 15:41 28.10249 117.60033 34206 ft 396 kts 232°
2026-05-04 15:41 28.06403 117.55524 34206 ft 395 kts 232°
2026-05-04 15:42 28.02556 117.51021 34204 ft 394 kts 232°
2026-05-04 15:42 27.98715 117.46525 34199 ft 398 kts 232°
2026-05-04 15:43 27.94878 117.42040 34207 ft 396 kts 232°
2026-05-04 15:43 27.91041 117.37560 34212 ft 396 kts 232°
2026-05-04 15:44 27.87236 117.33124 34215 ft 398 kts 232°
2026-05-04 15:44 27.83363 117.28610 34221 ft 397 kts 232°
2026-05-04 15:45 27.79494 117.24108 34221 ft 398 kts 231°
2026-05-04 15:45 27.75628 117.19614 34216 ft 399 kts 232°
2026-05-04 15:46 27.71784 117.15151 34208 ft 397 kts 231°
2026-05-04 15:46 27.67895 117.10637 34206 ft 400 kts 232°
2026-05-04 15:47 27.64026 117.06154 34207 ft 399 kts 231°
2026-05-04 15:47 27.60130 117.01645 34211 ft 399 kts 231°
2026-05-04 15:48 27.56234 116.97144 34211 ft 400 kts 232°
2026-05-04 15:48 27.50419 116.90419 34212 ft 400 kts 231°
2026-05-04 15:49 27.46561 116.85905 34202 ft 399 kts 232°
2026-05-04 15:49 27.42672 116.81343 34197 ft 400 kts 232°
2026-05-04 15:50 27.38786 116.76795 34196 ft 401 kts 232°
2026-05-04 15:50 27.34906 116.72266 34195 ft 399 kts 232°
2026-05-04 15:51 27.31024 116.67738 34197 ft 402 kts 232°
2026-05-04 15:51 27.27124 116.63195 34199 ft 403 kts 232°
2026-05-04 15:52 27.23207 116.58638 34193 ft 403 kts 232°
2026-05-04 15:52 27.19303 116.54078 34199 ft 403 kts 232°
2026-05-04 15:53 27.15501 116.49489 34197 ft 402 kts 233°
2026-05-04 15:53 27.11726 116.44888 34206 ft 401 kts 233°
2026-05-04 15:54 27.07898 116.40234 34201 ft 402 kts 233°
2026-05-04 15:54 27.04080 116.35608 34206 ft 403 kts 233°
2026-05-04 15:55 27.00258 116.30993 34212 ft 403 kts 232°
2026-05-04 15:55 26.96397 116.26337 34207 ft 405 kts 233°
2026-05-04 15:56 26.92537 116.21690 34209 ft 406 kts 233°
2026-05-04 15:56 26.88710 116.17057 34210 ft 406 kts 233°
2026-05-04 15:57 26.84880 116.12386 34207 ft 406 kts 233°
2026-05-04 15:57 26.81057 116.07728 34202 ft 406 kts 233°
2026-05-04 15:58 26.77196 116.03030 34201 ft 408 kts 233°
2026-05-04 15:58 26.73360 115.98373 34200 ft 407 kts 233°
2026-05-04 15:59 26.69486 115.93674 34198 ft 408 kts 233°
2026-05-04 15:59 26.65621 115.88993 34197 ft 409 kts 233°
2026-05-04 16:00 26.61784 115.84350 34191 ft 408 kts 232°
2026-05-04 16:00 26.57939 115.79704 34187 ft 409 kts 232°
2026-05-04 16:01 26.54041 115.75001 34188 ft 409 kts 233°
2026-05-04 16:01 26.50192 115.70360 34182 ft 408 kts 233°
2026-05-04 16:02 26.46307 115.65681 34184 ft 409 kts 233°
2026-05-04 16:03 26.40481 115.58672 34185 ft 410 kts 233°
2026-05-04 16:03 26.36610 115.54021 34187 ft 409 kts 233°
2026-05-04 16:04 26.32725 115.49357 34188 ft 410 kts 233°
2026-05-04 16:04 26.26887 115.42362 34182 ft 409 kts 233°
2026-05-04 16:05 26.22977 115.37682 34177 ft 412 kts 233°
2026-05-04 16:06 26.17140 115.30705 34172 ft 413 kts 232°
2026-05-04 16:07 26.09287 115.21335 34165 ft 413 kts 232°
2026-05-04 16:08 26.01440 115.11990 34165 ft 413 kts 232°
2026-05-04 16:09 25.91544 115.00239 34176 ft 415 kts 232°
2026-05-04 16:10 25.83594 114.90936 34184 ft 419 kts 230°
2026-05-04 16:11 25.75752 114.86186 34179 ft 444 kts 205°
2026-05-04 16:11 25.72719 114.85313 34182 ft 450 kts 202°
2026-05-04 16:12 25.54263 114.80878 34175 ft 451 kts 201°
2026-05-04 16:13 25.41913 114.77858 34178 ft 450 kts 201°
2026-05-04 16:14 25.29648 114.74833 34178 ft 450 kts 201°
2026-05-04 16:16 25.14344 114.71060 34185 ft 452 kts 201°
2026-05-04 16:17 24.98928 114.67269 34195 ft 453 kts 201°
2026-05-04 16:18 24.89684 114.65009 33934 ft 441 kts 201°
2026-05-04 16:18 24.86767 114.64307 33677 ft 431 kts 201°
2026-05-04 16:19 24.78020 114.62157 33189 ft 431 kts 201°
2026-05-04 16:19 24.72158 114.60545 33190 ft 431 kts 206°
2026-05-04 16:20 24.64081 114.56523 33194 ft 419 kts 217°
2026-05-04 16:20 24.59010 114.53333 33196 ft 419 kts 218°
2026-05-04 16:22 24.46416 114.45296 33200 ft 421 kts 217°
2026-05-04 16:23 24.31137 114.35683 33186 ft 422 kts 217°
2026-05-04 16:25 24.15759 114.26061 33203 ft 425 kts 217°
2026-05-04 16:26 24.06905 114.18103 33204 ft 406 kts 240°
2026-05-04 16:26 24.02732 114.10093 33213 ft 403 kts 246°
2026-05-04 16:28 23.96278 113.96555 33216 ft 403 kts 246°
2026-05-04 16:29 23.87082 113.77595 33175 ft 404 kts 245°
2026-05-04 16:31 23.80324 113.64236 33162 ft 409 kts 239°
2026-05-04 16:31 23.73845 113.58067 31316 ft 421 kts 219°
2026-05-04 16:32 23.66364 113.53084 28491 ft 424 kts 217°
2026-05-04 16:33 23.61575 113.49345 26265 ft 420 kts 229°
2026-05-04 16:33 23.58273 113.44213 23916 ft 420 kts 245°
2026-05-04 16:34 23.56114 113.38442 22427 ft 403 kts 251°
2026-05-04 16:34 23.55180 113.35580 21803 ft 395 kts 252°
2026-05-04 16:35 23.51900 113.27162 19519 ft 407 kts 237°
2026-05-04 16:35 23.45658 113.21121 17234 ft 397 kts 217°
2026-05-04 16:36 23.43263 113.19673 16520 ft 396 kts 208°
2026-05-04 16:36 23.38058 113.18006 15287 ft 384 kts 197°
2026-05-04 16:37 23.32976 113.17007 14833 ft 350 kts 195°
2026-05-04 16:37 23.30653 113.16576 14684 ft 333 kts 195°
2026-05-04 16:37 23.26277 113.15716 14380 ft 303 kts 197°
2026-05-04 16:38 23.22286 113.14877 14078 ft 279 kts 197°
2026-05-04 16:39 23.16921 113.13564 13665 ft 247 kts 201°
2026-05-04 16:39 23.13454 113.12582 13331 ft 265 kts 200°
2026-05-04 16:40 23.09888 113.11621 12644 ft 261 kts 199°
2026-05-04 16:40 23.06383 113.10682 12019 ft 258 kts 199°
2026-05-04 16:41 23.02839 113.09862 11173 ft 272 kts 187°
2026-05-04 16:41 22.98220 113.13931 8631 ft 320 kts 103°
2026-05-04 16:42 23.00205 113.19506 7175 ft 243 kts 43°
2026-05-04 16:43 23.02960 113.21257 6589 ft 228 kts 10°
2026-05-04 16:43 23.05991 113.21934 6058 ft 217 kts 10°
2026-05-04 16:43 23.07459 113.22323 5656 ft 213 kts 13°
2026-05-04 16:44 23.13208 113.23890 5627 ft 214 kts 12°
2026-05-04 16:45 23.16105 113.24658 5626 ft 212 kts 12°
2026-05-04 16:46 23.20206 113.25765 5609 ft 191 kts 13°
2026-05-04 16:46 23.22660 113.26524 5070 ft 176 kts 13°
2026-05-04 16:47 23.25138 113.27194 3710 ft 182 kts 15°
2026-05-04 16:47 23.27404 113.27803 3085 ft 153 kts 16°
2026-05-04 16:48 23.30469 113.28633 1387 ft 177 kts 16°
2026-05-04 16:48 23.31643 113.28947 986 ft 159 kts 15°
2026-05-04 16:49 23.33538 113.29408 773 ft 131 kts 16°
2026-05-04 16:49 23.35374 113.29910 555 ft 134 kts 15°
2026-05-04 16:50 23.37122 113.30398 188 ft 120 kts 18°
2026-05-04 16:50 23.38684 113.30833 40 ft 86 kts 16°
2026-05-04 16:51 23.39325 113.30954 42 ft 38 kts 350°
2026-05-04 16:51 23.39480 113.30906 43 ft 19 kts 338°
2026-05-04 16:51 23.39695 113.30810 43 ft 17 kts 269°